FW9206 Weather Reports


time (UTC)temp
C
wind
direction
speed
KPH
gust
KPH
rain 1hr
cm
rain 24hr
cm
rain mn
cm
humidity
%
barometer
mb
20260507161803 14 301 11.3 33.8 0.00 0.61 0.05 41 1008.5
20260507160903 13 286 16.1 33.8 0.00 0.61 0.05 45 1008.7
20260507160004 13 287 17.7 37.0 0.00 0.61 0.05 44 1008.7
20260507155403 13 280 14.5 30.6 0.00 0.61 0.05 46 1008.7
20260507154503 13 289 12.9 27.4 0.00 0.61 0.05 46 1008.7
20260507153604 13 267 12.9 33.8 0.00 0.61 0.05 52 1008.9
20260507152704 13 270 9.7 20.9 0.00 0.61 0.05 57 1008.9
20260507151803 13 288 9.7 24.1 0.00 0.61 0.05 57 1009.0
20260507150903 13 266 11.3 29.0 0.00 0.61 0.05 61 1009.0
20260507150005 13 276 9.7 24.1 0.00 0.61 0.05 60 1009.1
20260507145424 12 291 11.3 22.5 0.00 0.61 0.05 61 1009.3
20260507144503 13 275 11.3 24.1 0.00 0.61 0.05 62 1009.3
20260507143625 12 282 8.0 19.3 0.00 0.61 0.05 63 1009.3
20260507142724 12 284 9.7 20.9 0.00 0.61 0.05 61 1009.3
20260507141803 13 280 9.7 22.5 0.00 0.61 0.05 59 1009.2
20260507140903 13 293 8.0 19.3 0.00 0.61 0.05 58 1009.1
20260507140024 12 291 9.7 22.5 0.00 0.61 0.05 59 1009.2
20260507135405 12 310 8.0 19.3 0.00 0.61 0.05 62 1009.2
20260507134504 12 299 11.3 20.9 0.00 0.61 0.05 62 1009.1
20260507133604 12 296 8.0 17.7 0.00 0.61 0.05 62 1009.1
20260507132703 12 312 6.4 12.9 0.00 0.61 0.05 63 1009.3
20260507131803 12 302 6.4 16.1 0.00 0.61 0.05 64 1009.4
20260507130903 12 306 6.4 14.5 0.00 0.61 0.05 65 1009.6
20260507130004 11 315 6.4 12.9 0.00 0.61 0.05 68 1009.5
20260507125425 11 314 6.4 12.9 0.00 0.61 0.05 68 1009.6
20260507124505 11 329 3.2 12.9 0.00 0.61 0.05 70 1009.5
20260507123603 11 312 6.4 16.1 0.00 0.61 0.05 73 1009.6
20260507122705 10 297 9.7 20.9 0.00 0.61 0.05 75 1009.7
20260507121804 10 289 8.0 17.7 0.00 0.61 0.05 76 1009.8
20260507120903 10 317 4.8 11.3 0.00 0.61 0.05 82 1009.8
20260507120004 9 315 3.2 8.0 0.00 0.61 0.05 84 1009.6
20260507115403 8 307 3.2 11.3 0.00 0.61 0.05 85 1009.7
20260507114503 8 297 4.8 11.3 0.00 0.61 0.05 85 1009.6
20260507113603 8 314 4.8 14.5 0.00 0.61 0.05 85 1009.6
20260507112704 8 314 4.8 14.5 0.00 0.61 0.05 85 1009.4
20260507111803 8 312 6.4 12.9 0.00 0.61 0.05 86 1009.4
20260507110903 8 319 4.8 11.3 0.00 0.61 0.05 86 1009.5
20260507110003 8 313 4.8 11.3 0.00 0.61 0.05 86 1009.5
20260507105404 8 303 6.4 14.5 0.00 0.61 0.05 86 1009.4
20260507104504 8 313 8.0 14.5 0.00 0.61 0.05 86 1009.1
20260507103624 8 329 6.4 12.9 0.00 0.61 0.05 86 1009.0
20260507102703 8 320 6.4 17.7 0.00 0.61 0.05 87 1009.0
20260507101804 8 318 6.4 14.5 0.00 0.61 0.05 88 1008.9
20260507100924 8 317 4.8 11.3 0.00 0.61 0.05 89 1009.1
20260507100004 8 317 6.4 17.7 0.00 0.61 0.05 89 1008.8
20260507095403 8 307 8.0 17.7 0.00 0.61 0.05 89 1008.8
20260507094524 8 301 6.4 12.9 0.00 0.61 0.05 90 1009.2
20260507093604 8 293 6.4 12.9 0.00 0.61 0.05 91 1009.1
20260507092703 8 285 3.2 11.3 0.00 0.61 0.05 91 1009.0
20260507091803 8 290 6.4 14.5 0.00 0.61 0.05 92 1009.0
20260507090904 8 288 8.0 17.7 0.00 0.61 0.05 92 1009.1
20260507090004 8 288 6.4 17.7 0.00 0.61 0.05 92 1009.2
20260507085403 8 296 6.4 14.5 0.03 0.61 0.05 92 1008.8
20260507084504 8 271 4.8 12.9 0.03 0.61 0.05 92 1009.2
20260507083625 8 277 4.8 9.7 0.03 0.61 0.05 91 1008.8
20260507082703 8 280 3.2 8.0 0.03 0.61 0.05 91 1008.6
20260507081803 9 302 3.2 9.7 0.03 0.61 0.05 90 1008.7
20260507080903 9 304 4.8 12.9 0.03 0.61 0.05 88 1008.7
20260507080004 9 310 6.4 17.7 0.03 0.61 0.05 87 1008.4
20260507075404 10 313 6.4 17.7 0.00 0.58 0.03 86 1008.6
20260507074505 10 296 8.0 19.3 0.00 0.58 0.03 86 1008.8
20260507073603 10 302 9.7 20.9 0.00 0.58 0.03 86 1008.6
20260507072724 10 306 9.7 22.5 0.00 0.58 0.03 85 1008.4
20260507071803 10 308 11.3 22.5 0.00 0.58 0.03 86 1008.3
20260507070903 10 306 11.3 22.5 0.00 0.58 0.03 86 1008.1
20260507070006 10 301 9.7 17.7 0.00 0.58 0.03 88 1008.4
20260507065404 10 301 9.7 19.3 0.00 0.58 0.03 88 1008.3
20260507064504 10 293 6.4 14.5 0.00 0.58 0.03 88 1008.0
20260507063604 10 292 6.4 16.1 0.00 0.58 0.03 88 1008.1
20260507062703 10 289 6.4 16.1 0.00 0.58 0.03 88 1007.9
20260507061803 10 289 8.0 19.3 0.00 0.58 0.03 88 1007.8
20260507060903 10 291 9.7 19.3 0.00 0.58 0.03 88 1008.0
20260507060024 10 293 6.4 20.9 0.00 0.58 0.03 89 1008.1
20260507055403 10 286 8.0 20.9 0.00 0.58 0.03 89 1008.2
20260507054503 10 282 4.8 17.7 0.00 0.58 0.03 90 1008.4
20260507053603 10 293 6.4 11.3 0.00 0.58 0.03 88 1008.5
20260507052704 10 304 6.4 14.5 0.00 0.58 0.03 87 1008.7
20260507051803 10 304 6.4 16.1 0.00 0.58 0.03 87 1008.4
20260507050903 10 301 9.7 19.3 0.00 0.58 0.03 89 1008.6
20260507050004 11 307 8.0 19.3 0.03 0.58 0.03 89 1008.3
20260507045403 11 314 8.0 17.7 0.03 0.58 0.03 90 1008.2
20260507044504 11 308 9.7 25.7 0.03 0.58 0.03 90 1008.1
20260507043624 11 312 9.7 22.5 0.03 0.58 0.03 91 1008.3
20260507042703 11 310 11.3 22.5 0.03 0.58 0.03 92 1008.2
20260507041803 11 309 9.7 22.5 0.03 0.58 0.03 93 1008.4
20260507040903 12 304 9.7 24.1 0.03 0.58 0.03 93 1008.5
20260507040004 12 307 11.3 22.5 0.00 0.56 0.00 93 1008.3
20260507035403 12 309 9.7 24.1 0.00 0.56 0.56 93 1008.2
20260507034503 13 309 9.7 22.5 0.00 0.56 0.56 93 1008.0
20260507033603 13 300 9.7 24.1 0.00 0.56 0.56 94 1007.7
20260507032724 13 291 9.7 20.9 0.00 0.56 0.56 95 1007.7
20260507031803 14 305 8.0 25.7 0.00 0.56 0.56 95 1007.5
20260507030903 14 290 11.3 25.7 0.00 0.56 0.56 96 1007.4
20260507030004 14 278 12.9 25.7 0.00 0.56 0.56 96 1007.5
20260507025424 15 270 11.3 25.7 0.00 0.56 0.56 96 1007.5
20260507024503 15 258 11.3 29.0 0.00 0.56 0.56 96 1007.2
20260507023603 15 238 14.5 29.0 0.00 0.56 0.56 96 1007.3
20260507022703 15 221 11.3 20.9 0.00 0.56 0.56 96 1007.2
20260507021803 15 220 8.0 20.9 0.00 0.56 0.56 96 1006.9
20260507020903 15 220 9.7 24.1 0.00 0.56 0.56 96 1006.8
20260507020003 15 212 11.3 27.4 0.00 0.56 0.56 96 1006.9
20260507015403 15 211 9.7 27.4 0.03 0.56 0.56 96 1006.9
20260507014524 15 205 9.7 24.1 0.03 0.56 0.56 96 1007.0
20260507013624 15 202 11.3 22.5 0.03 0.56 0.56 96 1007.0
20260507012724 15 205 11.3 20.9 0.03 0.56 0.56 96 1007.0
20260507011803 15 204 9.7 24.1 0.03 0.56 0.56 96 1007.1
20260507010904 15 205 11.3 27.4 0.03 0.56 0.56 96 1007.0
20260507010004 15 199 8.0 24.1 0.03 0.56 0.56 96 1007.1
20260507005424 15 199 9.7 24.1 0.00 0.53 0.53 96 1007.1
20260507004504 15 200 9.7 22.5 0.00 0.53 0.53 96 1007.1
20260507003604 15 197 9.7 22.5 0.00 0.53 0.53 96 1007.0
20260507002703 15 202 9.7 22.5 0.00 0.53 0.53 96 1006.8
20260507001803 15 200 8.0 22.5 0.03 0.53 0.53 96 1006.9
20260507000903 15 200 9.7 27.4 0.08 0.53 0.53 96 1006.9
20260507000024 15 194 9.7 27.4 0.13 0.53 0.53 96 1006.7
20260506235403 15 199 9.7 27.4 0.13 0.53 0.53 96 1006.8
20260506234503 15 198 9.7 27.4 0.18 0.53 0.53 96 1006.6
20260506233604 15 198 8.0 20.9 0.23 0.53 0.53 96 1006.6
20260506232704 15 192 8.0 24.1 0.23 0.53 0.53 96 1006.6
20260506231804 15 190 8.0 27.4 0.20 0.51 0.51 96 1006.6
20260506230924 15 194 9.7 27.4 0.15 0.46 0.48 95 1006.7
20260506230003 15 192 8.0 22.5 0.13 0.41 0.41 95 1006.9
20260506225403 15 198 8.0 25.7 0.13 0.41 0.41 95 1007.0
20260506224503 15 197 8.0 22.5 0.10 0.36 0.36 95 1007.0
20260506223604 15 195 8.0 24.1 0.05 0.30 0.33 95 1007.0
20260506222705 15 192 8.0 22.5 0.08 0.30 0.30 95 1007.0
20260506221803 15 192 11.3 32.2 0.08 0.30 0.30 95 1007.1
20260506220924 15 192 9.7 32.2 0.08 0.30 0.30 95 1007.1
20260506220003 15 185 9.7 27.4 0.08 0.28 0.28 94 1007.1
20260506215424 15 191 9.7 33.8 0.10 0.28 0.28 94 1007.2
20260506214504 15 187 9.7 29.0 0.10 0.25 0.25 94 1007.1
20260506213604 15 181 9.7 27.4 0.13 0.25 0.25 94 1007.1
20260506212703 15 186 9.7 33.8 0.13 0.23 0.23 94 1007.2
20260506211803 15 187 11.3 29.0 0.15 0.23 0.23 94 1007.3
20260506210924 15 184 11.3 40.2 0.18 0.23 0.23 93 1007.5
20260506210004 15 183 11.3 33.8 0.15 0.20 0.20 93 1007.5
20260506205403 15 183 9.7 29.0 0.13 0.18 0.18 93 1007.6
20260506204504 15 189 11.3 29.0 0.10 0.15 0.15 92 1007.9
20260506203604 16 189 8.0 25.7 0.08 0.13 0.13 92 1007.7
20260506202703 16 200 8.0 25.7 0.05 0.10 0.10 91 1007.7
20260506201803 16 197 9.7 29.0 0.03 0.08 0.08 90 1007.9
20260506200903 16 194 9.7 25.7 0.03 0.05 0.05 90 1007.8
20260506200003 16 201 9.7 24.1 0.03 0.05 0.05 89 1007.8
20260506195424 16 205 8.0 22.5 0.05 0.05 0.05 89 1007.8
20260506194503 16 205 9.7 29.0 0.05 0.05 0.05 89 1007.9
20260506193603 16 198 11.3 32.2 0.05 0.05 0.05 88 1007.8
20260506192703 17 201 8.0 24.1 0.05 0.05 0.05 90 1007.9
20260506191803 17 197 4.8 11.3 0.05 0.05 0.05 89 1007.8
20260506190903 17 216 8.0 14.5 0.03 0.03 0.03 88 1007.7
20260506190003 17 225 8.0 19.3 0.03 0.03 0.03 87 1007.9
20260506185403 17 237 9.7 17.7 0.00 0.00 0.00 85 1008.1
20260506184503 17 250 9.7 16.1 0.00 0.00 0.00 83 1008.1
20260506183624 18 252 11.3 25.7 0.00 0.00 0.00 78 1008.3
20260506182724 20 241 14.5 37.0 0.00 0.00 0.00 72 1008.3
20260506181803 20 222 14.5 35.4 0.00 0.00 0.00 66 1008.3
20260506180904 21 217 19.3 40.2 0.00 0.00 0.00 63 1008.3
20260506180004 21 211 17.7 41.8 0.00 0.00 0.00 62 1008.2
20260506175403 21 211 12.9 33.8 0.00 0.00 0.00 61 1008.3
20260506174503 21 206 11.3 30.6 0.00 0.00 0.00 59 1008.2
20260506173603 21 199 11.3 35.4 0.00 0.00 0.00 59 1008.2
20260506172703 21 199 11.3 38.6 0.00 0.00 0.00 58 1008.1
20260506171804 21 196 14.5 46.7 0.00 0.00 0.00 59 1008.1
20260506170924 21 193 14.5 41.8 0.00 0.00 0.00 59 1008.4
20260506170024 21 200 17.7 43.5 0.00 0.00 0.00 60 1008.5
20260506165403 21 193 12.9 35.4 0.00 0.00 0.00 59 1008.7
20260506164503 21 197 9.7 29.0 0.00 0.00 0.00 61 1008.7
20260506163603 21 206 14.5 38.6 0.00 0.00 0.00 62 1008.9
20260506162703 21 198 12.9 30.6 0.00 0.00 0.00 63 1009.0